This is the latest recevied weather packets stored in our database for station/object KN4PLO. If no packets are shown the sender has not sent any weather packets the latest 1 day(s).
| Time | Temp. | Humidity | Pressure | Rain* | Wind** | Luminosity | Snow |
|---|---|---|---|---|---|---|---|
| 1836274846 | 21.11° C | 100% | - | 0 mm | 0.45 m/s, 80° | - | - |
| 1836274818 | 21.11° C | 100% | - | 0 mm | 0.45 m/s, 63° | - | - |
| 1836274546 | 21.67° C | 100% | - | 0 mm | 0.45 m/s, 50° | - | - |
| 1836274396 | 20.56° C | 100% | - | 0 mm | 0.89 m/s, 65° | - | - |
| 1836274218 | 21.67° C | 100% | - | 0 mm | 0.45 m/s, 50° | - | - |
| 1778058773 | 17.78° C | 100% | - | 0 mm | 3.58 m/s, 234° | - | - |
| 1778058473 | 17.78° C | 100% | - | 0 mm | 4.02 m/s, 257° | - | - |
| 1778058444 | 17.78° C | 100% | - | 0 mm | 4.02 m/s, 252° | - | - |
| 1778058173 | 17.78° C | 100% | - | 0 mm | 3.13 m/s, 236° | - | - |
| 1778057873 | 17.78° C | 100% | - | 0 mm | 2.24 m/s, 206° | - | - |
| 1778057846 | 17.78° C | 100% | - | 0 mm | 3.13 m/s, 232° | - | - |
| 1778057573 | 17.78° C | 100% | - | 0 mm | 2.24 m/s, 207° | - | - |
| 1778057273 | 17.78° C | 100% | - | 0 mm | 3.58 m/s, 205° | - | - |
| 1778057248 | 17.78° C | 100% | - | 0 mm | 3.13 m/s, 196° | - | - |
| 1778056973 | 17.78° C | 100% | - | 0 mm | 6.26 m/s, 226° | - | - |
| 1778056673 | 17.78° C | 100% | - | 0 mm | 2.24 m/s, 223° | - | - |
| 1778056644 | 17.78° C | 100% | - | 0 mm | 2.24 m/s, 182° | - | - |
| 1778056373 | 17.78° C | 100% | - | 0 mm | 3.58 m/s, 215° | - | - |
| 1778056073 | 17.78° C | 100% | - | 0 mm | 2.24 m/s, 194° | - | - |
| 1778056045 | 17.78° C | 100% | - | 0 mm | 2.68 m/s, 175° | - | - |
| 1778055773 | 17.78° C | 100% | - | 0 mm | 2.24 m/s, 217° | - | - |
| 1778055473 | 17.78° C | 100% | - | 0 mm | 2.68 m/s, 183° | - | - |
| 1778055448 | 17.78° C | 100% | - | 0 mm | 3.58 m/s, 205° | - | - |
| 1778055173 | 17.78° C | 100% | - | 0 mm | 4.92 m/s, 214° | - | - |
| 1778054873 | 17.78° C | 100% | - | 0 mm | 1.34 m/s, 244° | - | - |
* Rain latest hour (hover to see other rain measurements)
** Current wind speed in m/s (hover to see current wind gust speed)